Flag for Canada Weather past 2 weeks in Happy Valley-Goose Bay, Newfoundland and Labrador, Canada

Now
55 °F

Passing clouds.


Feels Like: 52 °F
Forecast: 56 / 72 °F
Wind: 15 mph from West

Location: Goose

Current Time: Aug 30, 2014 at 7:51:03 AM

Latest Report: Aug 30, 2014 at 7:00 AM


Visibility: 15 mi

Pressure: 29.83 "Hg

Humidity: 55%

Dew point: 39 °F

Location of Happy Valley-Goose BayLocation

Historic Weather in Happy Valley-Goose Bay — Graph

°F

Happy Valley-Goose Bay temperature yesterday

Maximum temperature yesterday: 70 °F (at 6:00 PM)
Minimum temperature yesterday: 39 °F (at 4:00 AM)
Average temperature yesterday: 54 °F

Past Weeks' High & Low Weather Summary

 TemperatureHumidityPressure
High86 °F (Aug 24, 3:00 PM)94% (Aug 26, 10:00 AM)30.27 "Hg (Aug 26, 10:00 AM)
Low37 °F (Aug 28, 5:00 AM)31% (Aug 29, 6:00 PM)29.39 "Hg (Aug 27, 4:00 AM)
Average60 °F70%29.98 "Hg
* Reported Aug 15 6:00 AM — Aug 30 6:00 AM, Happy Valley-Goose Bay, Weather by CustomWeather, © 2014

Note: Actual official high and low records may vary slightly from our data, if they occured in-between our weather recording intervals... More about our weather records

Advertising

Happy Valley-Goose Bay weather history for previous 24 hours

 ConditionsComfort  
Time TempWeatherWind HumidityBarometerVisibility
6:00 AM
Aug 30
55 °FPassing clouds.17 mph51%29.84 "Hg15 mi
5:00 AM55 °FPartly cloudy.17 mph55%29.85 "Hg15 mi
4:00 AM55 °FPartly cloudy.8 mph55%29.86 "Hg15 mi
3:00 AM55 °FPassing clouds.12 mph55%29.87 "Hg15 mi
2:00 AM54 °FPassing clouds.8 mph58%29.88 "Hg15 mi
1:00 AM54 °FPassing clouds.10 mph58%29.89 "Hg15 mi
12:00 AM54 °FPassing clouds.12 mph58%29.90 "Hg15 mi
11:00 PM
Aug 29
55 °FPassing clouds.5 mph59%29.91 "Hg15 mi
10:00 PM59 °FPassing clouds.8 mph48%29.92 "Hg15 mi
9:00 PM61 °FPartly sunny.6 mph48%29.92 "Hg15 mi
8:00 PM63 °FScattered clouds.7 mph42%29.92 "Hg15 mi
7:00 PM68 °FPassing clouds.8 mph35%29.91 "Hg15 mi
6:00 PM70 °FPassing clouds.13 mph31%29.92 "Hg15 mi
4:00 PM68 °FPassing clouds.13 mph33%29.94 "Hg15 mi
3:00 PM66 °FPassing clouds.13 mph37%29.95 "Hg15 mi
2:00 PM66 °FPassing clouds.9 mph35%29.97 "Hg15 mi
1:00 PM64 °FPassing clouds.8 mph37%29.98 "Hg15 mi
12:00 PM61 °FPassing clouds.3 mph48%30.01 "Hg15 mi
11:00 AM57 °FPassing clouds.7 mph59%30.02 "Hg15 mi
10:00 AM52 °FPassing clouds.12 mph67%30.04 "Hg15 mi
9:00 AM46 °FPassing clouds.13 mph76%30.04 "Hg15 mi
8:00 AM41 °FPassing clouds.6 mph87%30.04 "Hg15 mi
7:00 AM39 °FClear.7 mph81%30.04 "Hg15 mi
Weather by CustomWeather, © 2014

See weather overviewHow to use our weather pages